CZ-6A DEB

Satellite information

Favourite Embed

Satellite Type and Status

DEBRISIN ORBIT

Key statistics

Satellite CZ-6A DEB at a glance.

Uptime

1029

Days in orbit

Revolutions

≈ 14.3

Per day

Orbit

SSO

Sun Synchronous Orbit

Inclination

98.7

Latest

Satellite identification and parameters

Extended collection of information and parameters for CZ-6A DEB.

Object identification

Identified? True

Debris? True

Object name: CZ-6A DEB

International designator: 2022-151AEF

Object number (NORAD): 56607

Object ID (CCSDS): 56607

Country: PEOPLES REPUBLIC OF CHINA (PRC)

Current information (Y/N): Y

RCS size: SMALL

Orbital parameters

Period: 100.727 minutes

Inclination: 98.7163 deg

SMA: 7171.199 km

Apoapsis: 875.959 km

Periapsis: 710.169 km

RAAN: 266.7771 deg

Eccentricy: 0.01155943

Argument of periapsis: 216.7165 deg

Mean anomaly: 142.6058 deg

Mean motion: 14.29601843 rev/day

Mean motion (dot): 0.00001817 rev/day2

B* drag term: 0.0006770882 1/REarth

Two-line elements (TLE)

Creation date: Sept. 3, 2025, 2:21 a.m.

Reference frame: TEME

Reference center: EARTH

Epoch: Sept. 2, 2025, 6:47 p.m. UTC

TLE line 0: 0 CZ-6A DEB

TLE line 1: 1 56607U 22151AEF 25245.78290257 .00001817 00000-0 67709-3 0 9992

TLE line 2: 2 56607 98.7163 266.7771 0115594 216.7165 142.6058 14.29601843123032

Live tracking on map

Real-time ground track for satellite CZ-6A DEB.

In-orbit conjunctions

A list of the most updated potential collisions computed for object CZ-6A DEB.

Target Orbit TCA Probability of collision Miss distance Type
IRS P4 (OCEANSAT 1) SSO 2025-08-11 12:12:48 0.0001107981 211.0 (m) PAYLOAD
CZ-6A DEB LEO 2025-05-10 08:06:40 0.0001557542 296.0 (m) DEBRIS

Associated space launch

Chinese satellite reported for atmospheric/ocean/environmental/spatial parameter research purposes, details TBD.

CZ-6A DEB was lifted into orbit during the mission ‘Long March 6A | Yunhai 3’, on board a Long March 6A space rocket.

The launch took place on Nov. 11, 2022, 10:52 p.m. from Launch Complex 9A.

For more information about the launch, click the button.

Launch to space Long March 6A | Yunhai 3
Long March 6A | Yunhai 3

Agency: N/A

Status: Launch Successful

Launch date: Nov. 11, 2022, 10:52 p.m. UTC

Rocket: Long March 6A

Launch pad: Launch Complex 9A

Location: Taiyuan Satellite Launch Center, People's Republic of China

...

Latest news about this satellite

There are no fresh news available about this satellite. Check back as we update our databases every day.


Newsletter sign-up

Weekly statistics, charts and insights to help you stay on top of the space industry.